星链-34844(STARLINK-34844)

导读

STARLINK-34844是美国SpaceX公司于2025年11月15日发射的星链低轨通信卫星,隶属于星链全球卫星互联网项目。星链项目旨在为全球提供高速宽带互联网接入,尤其覆盖偏远地区。该卫星工作在低地球轨道,配备相控阵天线,支持激光星间链路,可与其他星链卫星组网,为用户提供稳定的低时延互联网接入服务,助力全球无缝互联。

Basic Information
目录编号:
66486
目录名称:
STARLINK-34844
国际标识:
2025-263B
轨道中心:
EARTH
卫星名称:
星链-34844
卫星全名:
星链-34844(STARLINK-34844)
卫星状态:
在轨 (已飞行210 天)
发射日期:
2025-11-15 UTC
国别 :
美国 (US)
星等 :
--
Orbit Information
数据来源 国际轨道数据 AOE轨道数据
星历时间 2026-06-13T15:01:42+0800
5小时前
查看轨道信息
2026-06-12T05:00:00+0800
1天前
查看轨道信息
半长轴 6861.093km 6861.219km
偏心率 0.0000856 0.0000035
轨道倾角 43.008° 42.997°
近地点辐角 278.175° 128.104°
升交点赤经 170.486° 178.483°
平近点角 81.901° 345.653°
近地点 482.368km 483.057km
远地点 483.544km 483.107km
周期 94.265分钟 94.267分钟
每日圈数 15.276111 15.275693
Detailed Information
固有亮度:
5
最大亮度:
2.5
卫星平台:
Starlink V1.0
覆盖范围:
全球
运营商:
太空探索技术公司
运营商所在国:
美国
制造商(研发单位):
太空探索技术公司
制造商所在国:
美国
使用方式:
暂无
Satellite Introduction
Starlink 计划是 SpaceX 推出的全球卫星互联网项目,通过发射低轨道卫星,为全球尤其是偏远地区提供高速、低延迟的互联网服务。自 2019 年起,Starlink 已部署数千颗卫星,旨在缩小全球数字鸿沟,推动互联网普及。该项目还为军事、航空等行业提供通信支持,带来广泛经济效益。
2D Orbit Map
3D Orbit Map
Orbit Altitude Analysis Chart
Orbit Inclination Analysis Chart
Orbit Comprehensive Analysis Chart
View Comprehensive Chart